TAM1457 SBCF-SBSP

Flight info

Callsign TAM1457
Flight time 0h 57m
Altitude 34000
Route ANDEM UZ30 ENTIT
Aircraft A319/M-SDE3FGHIRWY/LB1

Departure

Time 2026-05-09 00:47
Airport Tancredo Neves International Airport (SBCF)

Arrival

Time 2026-05-09 01:45
Airport Congonhas–Deputado Freitas Nobre Airport (SBSP)
Time Latitude Longitude Altitude Speed Heading
2026-05-09 00:18 -19.62913 -43.96751 2801 ft 0 kts 50°
2026-05-09 00:37 -19.62919 -43.96758 2798 ft 4 kts 49°
2026-05-09 00:37 -19.62936 -43.96780 2799 ft 4 kts 46°
2026-05-09 00:37 -19.62949 -43.96792 2798 ft 2 kts 20°
2026-05-09 00:38 -19.62960 -43.96795 2799 ft 2 kts 339°
2026-05-09 00:38 -19.62970 -43.96790 2801 ft 2 kts 323°
2026-05-09 00:38 -19.62978 -43.96783 2797 ft 2 kts 320°
2026-05-09 00:38 -19.62980 -43.96781 2796 ft 0 kts 320°
2026-05-09 00:41 -19.62976 -43.96785 2796 ft 4 kts 320°
2026-05-09 00:41 -19.62930 -43.96826 2796 ft 12 kts 320°
2026-05-09 00:41 -19.62856 -43.96892 2796 ft 17 kts 319°
2026-05-09 00:42 -19.62785 -43.96982 2799 ft 12 kts 281°
2026-05-09 00:42 -19.62812 -43.97072 2797 ft 14 kts 225°
2026-05-09 00:42 -19.62820 -43.97159 2796 ft 15 kts 318°
2026-05-09 00:42 -19.62739 -43.97233 2794 ft 16 kts 319°
2026-05-09 00:43 -19.62652 -43.97313 2794 ft 17 kts 319°
2026-05-09 00:43 -19.62558 -43.97401 2794 ft 19 kts 319°
2026-05-09 00:43 -19.62457 -43.97494 2796 ft 20 kts 319°
2026-05-09 00:43 -19.62351 -43.97591 2796 ft 21 kts 319°
2026-05-09 00:44 -19.62249 -43.97689 2797 ft 10 kts 313°
2026-05-09 00:44 -19.62247 -43.97749 2799 ft 9 kts 236°
2026-05-09 00:44 -19.62264 -43.97769 2795 ft 0 kts 223°
2026-05-09 00:45 -19.62264 -43.97770 2795 ft 0 kts 223°
2026-05-09 00:46 -19.62294 -43.97782 2796 ft 11 kts 195°
2026-05-09 00:46 -19.62387 -43.97782 2795 ft 15 kts 152°
2026-05-09 00:46 -19.62507 -43.97673 2793 ft 46 kts 139°
2026-05-09 00:46 -19.62950 -43.97264 2795 ft 120 kts 139°
2026-05-09 00:47 -19.63743 -43.96530 2867 ft 173 kts 138°
2026-05-09 00:47 -19.64639 -43.95717 3632 ft 169 kts 137°
2026-05-09 00:47 -19.65528 -43.94897 4403 ft 170 kts 135°
2026-05-09 00:47 -19.66435 -43.94053 4871 ft 180 kts 134°
2026-05-09 00:48 -19.67433 -43.93120 5080 ft 202 kts 135°
2026-05-09 00:48 -19.68562 -43.92069 5309 ft 228 kts 137°
2026-05-09 00:48 -19.69992 -43.91329 5841 ft 241 kts 173°
2026-05-09 00:48 -19.71620 -43.91693 6581 ft 244 kts 214°
2026-05-09 00:49 -19.72808 -43.92954 7339 ft 244 kts 235°
2026-05-09 00:49 -19.73766 -43.94448 8118 ft 246 kts 240°
2026-05-09 00:49 -19.74666 -43.96009 8869 ft 249 kts 244°
2026-05-09 00:49 -19.75261 -43.97732 9597 ft 250 kts 262°
2026-05-09 00:50 -19.75403 -43.99634 9983 ft 270 kts 274°
2026-05-09 00:50 -19.75427 -44.01722 10267 ft 294 kts 272°
2026-05-09 00:50 -19.75491 -44.03977 10511 ft 318 kts 271°
2026-05-09 00:50 -19.75581 -44.06368 10813 ft 336 kts 270°
2026-05-09 00:51 -19.75688 -44.08877 11397 ft 343 kts 270°
2026-05-09 00:51 -19.75802 -44.11423 12055 ft 347 kts 270°
2026-05-09 00:51 -19.75914 -44.14000 12709 ft 351 kts 270°
2026-05-09 00:51 -19.76020 -44.16602 13360 ft 355 kts 270°
2026-05-09 00:52 -19.76332 -44.19223 13967 ft 364 kts 256°
2026-05-09 00:52 -19.77435 -44.21660 14506 ft 372 kts 236°
2026-05-09 00:52 -19.79255 -44.23628 15073 ft 376 kts 221°
2026-05-09 00:52 -19.81257 -44.25431 15663 ft 379 kts 221°
2026-05-09 00:53 -19.83279 -44.27237 16236 ft 381 kts 221°
2026-05-09 00:53 -19.85287 -44.29032 16802 ft 384 kts 221°
2026-05-09 00:53 -19.87334 -44.30865 17374 ft 386 kts 221°
2026-05-09 00:53 -19.89390 -44.32714 17944 ft 388 kts 221°
2026-05-09 00:54 -19.91458 -44.34580 18486 ft 391 kts 221°
2026-05-09 00:54 -19.93533 -44.36456 18964 ft 394 kts 221°
2026-05-09 00:54 -19.95625 -44.38349 19451 ft 396 kts 221°
2026-05-09 00:54 -19.97730 -44.40253 19945 ft 398 kts 221°
2026-05-09 00:55 -19.99848 -44.42169 20435 ft 401 kts 221°
2026-05-09 00:55 -20.01980 -44.44102 20924 ft 404 kts 221°
2026-05-09 00:55 -20.04096 -44.46020 21397 ft 406 kts 221°
2026-05-09 00:55 -20.06249 -44.47970 21876 ft 409 kts 221°
2026-05-09 00:56 -20.08423 -44.49937 22348 ft 411 kts 221°
2026-05-09 00:56 -20.10608 -44.51912 22819 ft 414 kts 221°
2026-05-09 00:56 -20.12807 -44.53901 23282 ft 416 kts 221°
2026-05-09 00:56 -20.15020 -44.55905 23722 ft 419 kts 222°
2026-05-09 00:57 -20.17243 -44.57920 24107 ft 420 kts 222°
2026-05-09 00:57 -20.19473 -44.59943 24492 ft 422 kts 222°
2026-05-09 00:57 -20.21704 -44.61968 24915 ft 423 kts 222°
2026-05-09 00:57 -20.23915 -44.63977 25307 ft 424 kts 222°
2026-05-09 00:58 -20.26162 -44.66019 25707 ft 425 kts 222°
2026-05-09 00:58 -20.28415 -44.68069 26108 ft 426 kts 222°
2026-05-09 00:58 -20.30672 -44.70125 26520 ft 427 kts 222°
2026-05-09 00:58 -20.32931 -44.72179 26921 ft 428 kts 222°
2026-05-09 00:59 -20.35201 -44.74243 27309 ft 430 kts 222°
2026-05-09 00:59 -20.37484 -44.76318 27699 ft 431 kts 223°
2026-05-09 00:59 -20.39768 -44.78395 28093 ft 432 kts 223°
2026-05-09 00:59 -20.42054 -44.80475 28488 ft 434 kts 223°
2026-05-09 01:00 -20.44351 -44.82569 28882 ft 435 kts 223°
2026-05-09 01:00 -20.46653 -44.84673 29270 ft 437 kts 223°
2026-05-09 01:00 -20.48933 -44.86757 29631 ft 438 kts 223°
2026-05-09 01:00 -20.51253 -44.88877 30018 ft 440 kts 223°
2026-05-09 01:01 -20.53576 -44.90997 30341 ft 441 kts 223°
2026-05-09 01:01 -20.55911 -44.93128 30655 ft 442 kts 223°
2026-05-09 01:01 -20.58252 -44.95265 30966 ft 443 kts 223°
2026-05-09 01:01 -20.60602 -44.97407 31267 ft 444 kts 223°
2026-05-09 01:02 -20.62956 -44.99553 31568 ft 445 kts 223°
2026-05-09 01:02 -20.65306 -45.01700 31918 ft 445 kts 223°
2026-05-09 01:02 -20.67646 -45.03846 32374 ft 442 kts 224°
2026-05-09 01:02 -20.69940 -45.05951 32822 ft 439 kts 224°
2026-05-09 01:03 -20.72252 -45.08071 33290 ft 437 kts 224°
2026-05-09 01:03 -20.74554 -45.10176 33752 ft 434 kts 224°
2026-05-09 01:03 -20.76844 -45.12270 34048 ft 432 kts 224°
2026-05-09 01:03 -20.79114 -45.14347 34109 ft 425 kts 224°
2026-05-09 01:04 -20.83549 -45.18409 34107 ft 418 kts 224°
2026-05-09 01:04 -20.87948 -45.22455 34107 ft 416 kts 224°
2026-05-09 01:05 -20.92304 -45.26471 34102 ft 416 kts 224°
2026-05-09 01:06 -20.98895 -45.32530 34100 ft 416 kts 224°
2026-05-09 01:06 -21.03284 -45.36563 34097 ft 416 kts 224°
2026-05-09 01:07 -21.07666 -45.40610 34097 ft 416 kts 224°
2026-05-09 01:07 -21.12051 -45.44655 34097 ft 416 kts 225°
2026-05-09 01:08 -21.16401 -45.48670 34095 ft 416 kts 225°
2026-05-09 01:08 -21.20782 -45.52724 34090 ft 416 kts 225°
2026-05-09 01:09 -21.25162 -45.56774 34093 ft 416 kts 225°
2026-05-09 01:09 -21.29540 -45.60816 34083 ft 416 kts 225°
2026-05-09 01:10 -21.33917 -45.64865 34080 ft 415 kts 225°
2026-05-09 01:10 -21.38264 -45.68893 34079 ft 415 kts 225°
2026-05-09 01:11 -21.42629 -45.72946 34078 ft 415 kts 225°
2026-05-09 01:11 -21.46999 -45.77000 34064 ft 415 kts 225°
2026-05-09 01:12 -21.51366 -45.81056 34067 ft 415 kts 225°
2026-05-09 01:12 -21.55709 -45.85088 34070 ft 415 kts 225°
2026-05-09 01:13 -21.60079 -45.89156 34066 ft 416 kts 225°
2026-05-09 01:13 -21.64440 -45.93224 34069 ft 415 kts 225°
2026-05-09 01:14 -21.68810 -45.97290 34073 ft 415 kts 225°
2026-05-09 01:14 -21.73145 -46.01335 34078 ft 415 kts 226°
2026-05-09 01:15 -21.77506 -46.05408 34072 ft 415 kts 226°
2026-05-09 01:15 -21.81867 -46.09483 34073 ft 415 kts 226°
2026-05-09 01:16 -21.86227 -46.13565 34074 ft 415 kts 226°
2026-05-09 01:16 -21.90586 -46.17650 34073 ft 415 kts 226°
2026-05-09 01:17 -21.97104 -46.23744 34074 ft 415 kts 226°
2026-05-09 01:17 -22.01463 -46.27828 34075 ft 416 kts 226°
2026-05-09 01:18 -22.05826 -46.31930 33731 ft 416 kts 226°
2026-05-09 01:18 -22.08006 -46.33979 33242 ft 415 kts 226°
2026-05-09 01:18 -22.10175 -46.36013 32776 ft 412 kts 226°
2026-05-09 01:19 -22.12330 -46.38036 32303 ft 409 kts 226°
2026-05-09 01:19 -22.14442 -46.40021 31843 ft 407 kts 226°
2026-05-09 01:19 -22.16592 -46.42045 31362 ft 405 kts 226°
2026-05-09 01:19 -22.18678 -46.44010 30905 ft 403 kts 226°
2026-05-09 01:20 -22.20782 -46.45993 30445 ft 401 kts 226°
2026-05-09 01:20 -22.22876 -46.47969 29942 ft 399 kts 226°
2026-05-09 01:20 -22.24962 -46.49937 29478 ft 397 kts 226°
2026-05-09 01:20 -22.27031 -46.51883 29024 ft 394 kts 226°
2026-05-09 01:21 -22.29090 -46.53820 28579 ft 391 kts 226°
2026-05-09 01:21 -22.31134 -46.55747 28141 ft 389 kts 226°
2026-05-09 01:21 -22.33161 -46.57663 27711 ft 386 kts 226°
2026-05-09 01:21 -22.35151 -46.59543 27295 ft 384 kts 226°
2026-05-09 01:22 -22.37181 -46.61462 26878 ft 382 kts 226°
2026-05-09 01:22 -22.39154 -46.63326 26478 ft 380 kts 226°
2026-05-09 01:22 -22.41138 -46.65200 26073 ft 378 kts 226°
2026-05-09 01:22 -22.43104 -46.67080 25677 ft 375 kts 227°
2026-05-09 01:23 -22.45016 -46.68980 25281 ft 372 kts 228°
2026-05-09 01:23 -22.46894 -46.70892 24888 ft 370 kts 229°
2026-05-09 01:23 -22.48754 -46.72798 24486 ft 368 kts 229°
2026-05-09 01:23 -22.50608 -46.74694 24093 ft 366 kts 229°
2026-05-09 01:24 -22.52457 -46.76579 23687 ft 365 kts 229°
2026-05-09 01:24 -22.54304 -46.78452 23227 ft 363 kts 228°
2026-05-09 01:24 -22.56142 -46.80306 22868 ft 362 kts 228°
2026-05-09 01:24 -22.58028 -46.82176 22706 ft 373 kts 224°
2026-05-09 01:25 -22.60273 -46.83580 22443 ft 385 kts 205°
2026-05-09 01:25 -22.62918 -46.84136 22067 ft 393 kts 185°
2026-05-09 01:25 -22.65651 -46.84127 21688 ft 393 kts 183°
2026-05-09 01:25 -22.68383 -46.84081 21318 ft 392 kts 182°
2026-05-09 01:26 -22.71103 -46.84025 20957 ft 390 kts 182°
2026-05-09 01:26 -22.73809 -46.83972 20601 ft 388 kts 182°
2026-05-09 01:26 -22.76502 -46.83922 20246 ft 386 kts 182°
2026-05-09 01:26 -22.78885 -46.83884 19931 ft 385 kts 182°
2026-05-09 01:27 -22.81554 -46.83849 19588 ft 383 kts 182°
2026-05-09 01:27 -22.83735 -46.83823 19305 ft 381 kts 182°
2026-05-09 01:27 -22.86390 -46.83791 18963 ft 380 kts 182°
2026-05-09 01:27 -22.88988 -46.83758 18632 ft 378 kts 182°
2026-05-09 01:28 -22.91608 -46.83720 18304 ft 377 kts 181°
2026-05-09 01:28 -22.94229 -46.83683 17920 ft 374 kts 181°
2026-05-09 01:28 -22.96826 -46.83648 17532 ft 372 kts 182°
2026-05-09 01:28 -22.99407 -46.83611 17160 ft 370 kts 181°
2026-05-09 01:29 -23.01969 -46.83575 16782 ft 368 kts 181°
2026-05-09 01:29 -23.04521 -46.83538 16407 ft 365 kts 181°
2026-05-09 01:29 -23.07052 -46.83501 16045 ft 363 kts 181°
2026-05-09 01:29 -23.09536 -46.83465 15694 ft 361 kts 182°
2026-05-09 01:30 -23.12038 -46.83430 15339 ft 359 kts 182°
2026-05-09 01:30 -23.14525 -46.83396 14985 ft 356 kts 182°
2026-05-09 01:30 -23.16994 -46.83360 14640 ft 354 kts 182°
2026-05-09 01:30 -23.19453 -46.83324 14294 ft 352 kts 182°
2026-05-09 01:31 -23.21898 -46.83287 13955 ft 351 kts 182°
2026-05-09 01:31 -23.24333 -46.83251 13580 ft 349 kts 182°
2026-05-09 01:31 -23.26757 -46.83217 13173 ft 347 kts 182°
2026-05-09 01:31 -23.29167 -46.83185 12772 ft 346 kts 182°
2026-05-09 01:32 -23.31074 -46.83162 12459 ft 345 kts 182°
2026-05-09 01:32 -23.33441 -46.83130 12073 ft 344 kts 182°
2026-05-09 01:32 -23.35828 -46.83094 11680 ft 342 kts 182°
2026-05-09 01:32 -23.38201 -46.83058 11309 ft 341 kts 182°
2026-05-09 01:33 -23.40568 -46.83022 10926 ft 340 kts 182°
2026-05-09 01:33 -23.42930 -46.82987 10549 ft 338 kts 182°
2026-05-09 01:33 -23.45277 -46.82953 10184 ft 338 kts 182°
2026-05-09 01:33 -23.47619 -46.82764 9808 ft 339 kts 169°
2026-05-09 01:34 -23.49814 -46.81848 9398 ft 338 kts 154°
2026-05-09 01:34 -23.51916 -46.80728 9019 ft 332 kts 154°
2026-05-09 01:34 -23.53966 -46.79629 8776 ft 326 kts 153°
2026-05-09 01:34 -23.55979 -46.78545 8548 ft 320 kts 153°
2026-05-09 01:35 -23.57968 -46.77474 8317 ft 318 kts 154°
2026-05-09 01:35 -23.59922 -46.76425 8078 ft 317 kts 154°
2026-05-09 01:35 -23.61897 -46.75368 7841 ft 316 kts 154°
2026-05-09 01:35 -23.63871 -46.74312 7602 ft 315 kts 153°
2026-05-09 01:36 -23.65870 -46.73241 7353 ft 314 kts 153°
2026-05-09 01:36 -23.67815 -46.72194 7124 ft 313 kts 153°
2026-05-09 01:36 -23.69769 -46.71141 6889 ft 313 kts 154°
2026-05-09 01:36 -23.71723 -46.70088 6485 ft 315 kts 153°
2026-05-09 01:37 -23.73698 -46.69026 6075 ft 316 kts 154°
2026-05-09 01:37 -23.75637 -46.67985 5977 ft 304 kts 154°
2026-05-09 01:37 -23.77450 -46.67011 5972 ft 284 kts 153°
2026-05-09 01:37 -23.79148 -46.66100 5975 ft 264 kts 154°
2026-05-09 01:38 -23.80772 -46.65225 5968 ft 258 kts 153°
2026-05-09 01:38 -23.82181 -46.64053 5963 ft 254 kts 127°
2026-05-09 01:38 -23.83015 -46.62446 5955 ft 237 kts 101°
2026-05-09 01:38 -23.83237 -46.60752 5867 ft 219 kts 79°
2026-05-09 01:39 -23.82927 -46.59177 5734 ft 208 kts 58°
2026-05-09 01:39 -23.82205 -46.57862 5611 ft 198 kts 42°
2026-05-09 01:39 -23.81350 -46.56699 5504 ft 199 kts 43°
2026-05-09 01:39 -23.80485 -46.55520 5501 ft 199 kts 40°
2026-05-09 01:40 -23.79380 -46.54763 5507 ft 184 kts
2026-05-09 01:40 -23.78170 -46.54925 5513 ft 175 kts 331°
2026-05-09 01:40 -23.77184 -46.55814 5512 ft 176 kts 320°
2026-05-09 01:40 -23.76169 -46.56582 5514 ft 175 kts 328°
2026-05-09 01:41 -23.75086 -46.57215 5341 ft 178 kts 332°
2026-05-09 01:41 -23.74015 -46.57846 5090 ft 172 kts 329°
2026-05-09 01:41 -23.73014 -46.58501 4844 ft 163 kts 328°
2026-05-09 01:41 -23.72077 -46.59137 4641 ft 153 kts 328°
2026-05-09 01:42 -23.71214 -46.59731 4462 ft 140 kts 328°
2026-05-09 01:42 -23.70403 -46.60290 4281 ft 136 kts 329°
2026-05-09 01:42 -23.69612 -46.60837 4113 ft 134 kts 329°
2026-05-09 01:42 -23.68827 -46.61380 3933 ft 134 kts 330°
2026-05-09 01:43 -23.68045 -46.61921 3768 ft 133 kts 330°
2026-05-09 01:43 -23.67272 -46.62457 3602 ft 132 kts 331°
2026-05-09 01:43 -23.66508 -46.62986 3424 ft 132 kts 329°
2026-05-09 01:43 -23.65732 -46.63523 3241 ft 132 kts 329°
2026-05-09 01:44 -23.64954 -46.64062 3054 ft 134 kts 329°
2026-05-09 01:44 -23.64162 -46.64609 2852 ft 135 kts 330°
2026-05-09 01:44 -23.63370 -46.65159 2618 ft 134 kts 328°
2026-05-09 01:44 -23.62692 -46.65625 2600 ft 82 kts 327°
2026-05-09 01:45 -23.62414 -46.65821 2601 ft 31 kts 328°
2026-05-09 01:45 -23.62294 -46.65905 2601 ft 14 kts 327°
2026-05-09 01:45 -23.62205 -46.65973 2601 ft 17 kts 314°
2026-05-09 01:45 -23.62240 -46.66040 2601 ft 11 kts 165°
2026-05-09 01:46 -23.62314 -46.65998 2601 ft 13 kts 147°
2026-05-09 01:46 -23.62393 -46.65942 2601 ft 14 kts 147°
2026-05-09 01:46 -23.62482 -46.65881 2601 ft 16 kts 148°
2026-05-09 01:46 -23.62579 -46.65816 2600 ft 17 kts 147°
2026-05-09 01:47 -23.62685 -46.65741 2600 ft 19 kts 147°
2026-05-09 01:47 -23.62742 -46.65710 2600 ft 2 kts 185°
2026-05-09 01:47 -23.62747 -46.65718 2600 ft 1 kts 234°
2026-05-09 01:47 -23.62761 -46.65739 2600 ft 5 kts 236°
2026-05-09 01:48 -23.62782 -46.65777 2600 ft 4 kts 238°
2026-05-09 01:48 -23.62784 -46.65781 2600 ft 0 kts 238°